SCP
-0 -0 -0 -0 -0 -0 0 0 0 0 0 0 0 0 0 0 0 0 0 0 0 0 0 0 0 0 0 0 0 0 0 0 0 0 0 0 0 0 0 0 0 0 0
0 -0 -0 -0 -0 0 0 0 0 0 0 0 0 0 0 0 0 0 0 0 0 0 0 0 0 0 0 0 0 0 0 0 0 0 0 0 0 0 0 0 0 0 0
0 0 0 -0 -0 0 0 0 0 0 0 0 0 0 0 0 0 0 0 0 1 0 0 0 0 0 0 0 0 0 0 0 0 0 0 0 0 0 0 0 0 0 0
0 0 0 -0 0 0 0 0 0 0 0 0 0 0 0 1 0 0 0 0 0 0 0 0 0 0 0 0 0 0 0 0 0 0 0 0 0 0 0 0 0 0 0
0 0 0 0 0 0 0 0 0 0 0 0 0 0 0 0 1 0 0 0 0 0 0 0 0 0 0 0 0 0 0 0 0 0 0 0 0 0 0 0 0 0 0
0 0 0 0 0 0 0 0 0 0 0 0 0 0 0 0 0 0 1 0 0 0 0 0 0 0 0 0 0 0 0 0 0 0 0 0 0 0 0 0 0 0 0
0 0 0 0 0 0 0 0 0 0 0 0 0 0 0 0 0 0 0 1 0 0 0 0 0 0 0 0 0 0 0 0 0 0 0 0 0 0 0 0 0 0 0
0 0 0 0 0 0 0 0 0 0 0 0 0 0 0 0 0 0 0 0 1 0 0 0 0 0 0 0 0 0 0 0 0 0 0 0 0 0 0 0 0 0 0
0 0 0 0 0 0 0 0 0 0 0 0 0 0 0 0 0 0 0 0 0 1 0 0 0 0 0 0 0 0 0 0 0 0 0 0 0 0 0 0 0 0 0
0 0 0 0 0 0 0 0 0 0 0 0 0 0 0 0 0 0 0 0 0 0 0 0 0 0 0 0 0 0 0 0 0 0 0 0 -0 0 0 0 0 0 0
0 0 0 0 0 0 0 0 0 0 0 0 0 0 0 0 0 0 0 0 0 0 0 0 0 0 0 0 0 0 0 0 0 0 0 0 0 0 0 0 0 0 0
0 0 0 0 0 0 0 0 0 0 0 0 0 0 0 0 0 0 0 0 0 0 0 0 0 0 0 0 0 0 0 0 0 0 0 0 0 0 0 0 0 0 0
0 0 0 0 0 0 0 0 0 0 0 0 0 0 0 0 0 0 0 0 0 0 0 0 0 0 0 0 0 0 0 0 0 0 0 0 0 0 0 0 0 0 0
0 0 0 0 0 0 0 0 0 0 0 0 0 0 0 0 0 0 0 0 0 0 1 1 0 0 0 0 0 0 0 0 0 0 0 0 0 0 0 0 0 0 0
0 0 0 0 0 0 0 0 0 0 0 0 0 0 0 0 0 0 0 0 0 0 1 1 0 0 0 0 0 0 0 0 0 0 0 0 0 0 0 0 0 0 0
0 0 0 0 0 0 0 0 0 0 0 0 0 0 0 0 0 0 0 0 0 0 0 0 0 0 0 0 0 0 0 0 0 0 0 0 0 0 0 0 0 0 0
0 0 0 0 0 0 0 0 0 0 0 0 0 0 0 0 0 0 0 0 0 0 0 0 0 0 0 0 0 0 0 0 0 0 0 0 0 0 0 0 0 0 0
0 0 0 0 0 0 0 0 0 0 0 0 0 0 0 0 0 0 0 0 0 0 0 0 0 0 0 0 0 0 0 0 0 0 0 0 0 0 0 0 0 0 0
0 0 0 0 0 0 0 0 0 0 0 0 0 0 0 0 0 0 0 0 0 0 0 0 0 0 0 0 0 0 0 0 0 0 0 0 0 0 0 0 0 0 0
0 0 0 0 0 0 0 0 0 0 0 0 0 0 0 0 0 0 0 -0 0 0 0 0 0 0 0 0 0 0 0 0 0 0 0 0 0 0 0 0 0 0 0
0 0 0 0 0 0 0 0 0 0 0 0 0 0 0 0 0 0 0 0 0 0 0 0 -0 0 0 0 0 0 0 0 0 0 0 0 0 0 0 0 0 0 0
0 0 0 0 0 0 0 0 0 0 0 0 0 0 0 0 0 0 -0 0 0 0 0 0 0 0 0 0 0 0 0 0 0 0 0 0 0 0 0 0 0 0 0
0 0 0 0 0 0 0 0 0 0 0 0 0 0 0 0 0 0 -0 0 0 0 0 -0 0 0 0 0 0 0 0 0 0 0 0 0 0 0 0 0 0 0 0
0 0 0 0 0 0 0 0 0 0 0 0 0 0 0 0 0 0 0 0 0 0 0 0 0 0 0 0 0 0 0 0 0 0 0 0 0 0 0 0 0 0 0
0 0 0 0 0 0 0 0 0 0 0 0 0 0 0 0 0 0 0 0 0 0 0 -0 0 0 0 0 0 0 0 0 0 0 0 0 0 0 0 0 0 0 0
0 0 0 0 0 0 0 0 0 -0 -0 0 0 0 0 0 0 0 0 0 0 -0 -0 -0 0 0 0 0 0 0 0 0 0 0 0 0 0 0 0 0 0 0 0
Wind_Speed_500mb
16 14 14 18 20 17 16 18 22 23 22 23 27 26 28 29 27 24 23 24 25 25 26 28 36 39 36 39 41 25 23 23 22 18 19 20 17 22 17 19 12 12 11
17 16 17 19 24 24 24 22 24 27 29 27 29 31 32 34 34 32 30 30 28 27 27 27 23 20 31 45 42 22 22 19 20 28 31 21 18 20 25 22 18 14 13
12 11 12 14 19 23 25 29 31 32 33 33 34 32 33 35 37 39 37 36 34 31 29 29 28 26 27 30 40 39 39 30 31 35 32 17 16 17 24 27 21 19 20
11 12 14 17 22 26 30 33 37 39 41 43 43 42 39 38 40 41 41 41 39 37 36 35 34 36 38 40 40 41 40 35 38 39 27 18 13 16 19 25 21 21 23
14 14 19 24 30 36 39 43 45 47 49 49 48 47 46 45 45 44 45 45 43 42 41 39 36 37 36 34 34 35 39 41 40 39 26 22 17 22 27 27 23 19 21
15 19 25 30 34 35 37 40 42 45 49 52 55 53 51 54 56 53 50 49 49 48 48 45 41 40 39 31 29 28 36 36 43 39 29 29 24 27 29 24 21 20 19
19 23 29 31 31 30 30 32 35 37 39 43 50 54 60 59 61 62 58 53 52 52 53 50 43 43 39 36 33 32 37 39 27 30 29 30 29 32 30 29 24 20 18
20 24 25 25 26 31 35 39 42 44 45 47 48 50 56 61 64 63 64 59 57 55 56 54 49 47 41 41 39 28 30 29 35 27 28 29 34 34 28 26 24 21 20
22 22 22 25 30 35 38 42 46 47 49 52 55 55 55 56 61 67 65 68 64 59 59 58 54 51 47 44 39 30 28 38 31 27 35 30 36 32 29 26 22 21 25
21 20 23 29 34 38 42 47 50 52 54 55 56 57 61 61 58 61 68 66 61 64 64 65 59 57 52 47 32 31 32 40 33 34 32 34 30 26 27 24 24 22 24
20 21 26 32 36 41 48 53 56 59 60 57 53 54 58 60 57 55 60 68 67 61 68 62 63 60 56 46 33 34 39 42 39 36 29 41 29 23 25 26 23 22 19
19 24 30 34 39 46 52 56 60 62 60 53 46 42 45 47 53 55 53 60 62 67 60 62 65 65 61 49 34 33 48 44 42 39 32 31 24 22 23 23 19 18 18
22 26 31 36 43 49 57 61 64 64 57 44 37 38 41 41 41 47 51 47 56 58 50 62 64 73 64 51 31 40 50 44 42 36 31 30 24 21 21 22 16 16 14
23 28 32 39 46 53 61 64 65 60 44 35 37 37 39 40 38 40 44 41 45 49 45 65 64 81 61 41 40 43 51 47 42 37 29 29 27 22 23 22 20 17 16
24 28 35 42 49 58 64 67 64 45 33 31 35 31 34 39 38 31 38 38 41 44 38 58 64 57 45 47 48 43 47 49 41 35 32 29 23 19 24 23 22 20 17
25 29 37 44 53 62 67 67 52 38 32 33 35 32 31 35 34 35 29 32 39 32 40 63 64 49 54 44 49 44 49 50 44 39 36 30 19 19 23 24 23 20 26
27 31 38 47 56 64 66 52 36 34 36 39 41 38 36 31 32 31 27 31 37 39 43 70 66 53 52 47 52 52 52 52 45 39 35 29 25 27 27 25 26 31 28
27 32 39 49 58 60 46 37 34 34 37 37 33 35 35 31 26 27 24 27 40 42 63 76 69 66 62 59 52 53 56 49 46 45 38 33 33 29 24 26 32 32 29
26 32 41 49 57 43 37 35 32 32 30 27 32 33 34 31 20 23 22 28 42 40 65 75 70 68 70 67 61 52 54 58 52 43 39 35 33 28 28 23 28 34 27
25 32 41 47 45 35 36 35 31 30 31 30 30 31 31 20 13 12 23 33 36 50 71 80 77 77 78 75 72 67 61 56 52 46 41 38 34 31 29 25 22 31 37
23 29 38 44 34 33 36 41 31 29 31 30 25 24 23 9 9 14 24 40 29 61 70 73 75 89 74 68 76 66 62 57 60 52 48 41 37 32 31 24 20 24 26
20 26 34 34 29 31 38 32 31 32 31 29 25 21 16 1 9 22 23 36 45 68 67 65 76 87 88 87 91 79 55 54 55 49 49 43 35 33 30 24 22 21 18
16 22 28 30 25 28 26 29 31 30 32 28 28 22 10 9 14 21 28 31 59 63 68 77 93 95 98 87 89 65 53 32 61 44 42 40 37 33 27 24 23 24 19
13 17 22 27 22 18 19 24 29 29 34 31 30 26 14 16 20 26 36 30 57 67 74 69 72 92 96 84 58 61 42 81 45 31 39 43 37 28 24 25 26 24 19
11 13 18 22 17 14 14 18 23 20 23 26 24 44 35 33 49 36 31 49 52 48 58 51 74 83 89 87 81 72 49 61 56 66 53 43 38 33 32 30 28 21 16
9 9 14 16 12 9 9 16 18 15 19 20 25 38 36 34 40 34 41 43 53 52 46 46 71 86 71 78 72 68 69 59 56 74 55 46 41 37 34 30 25 18 14
Wind_Direction_500mb
203 214 223 241 267 284 286 270 261 260 266 273 267 259 257 256 255 252 247 242 237 236 229 234 224 241 230 216 240 239 213 205 201 194 183 167 182 195 192 203 198 205 192
201 219 238 251 263 277 278 280 273 272 265 264 269 264 262 258 254 251 249 245 239 233 227 218 222 207 211 220 219 225 218 217 213 188 178 171 203 200 208 205 209 203 194
198 217 242 258 270 275 280 279 280 277 270 267 260 257 255 258 254 250 248 244 241 237 228 219 214 205 198 192 202 222 232 241 216 197 183 175 212 228 211 206 206 193 174
223 241 256 270 279 285 288 284 280 278 275 273 264 260 256 251 251 249 246 243 240 233 225 222 218 221 216 214 217 222 229 228 208 202 193 185 185 193 175 171 175 174 167
237 258 275 286 291 292 290 286 281 277 272 270 272 264 264 256 251 247 246 243 238 233 226 222 219 222 225 215 217 226 226 216 211 209 195 192 178 179 166 162 163 172 170
256 278 288 293 294 293 290 289 287 283 280 277 273 271 263 260 260 256 245 240 238 233 227 221 217 218 225 220 226 220 209 216 218 209 201 201 183 185 171 167 175 187 182
271 286 299 301 301 301 303 305 302 298 293 285 277 270 263 257 252 255 250 244 238 234 229 223 219 220 219 217 217 222 210 216 214 199 194 194 184 181 174 175 180 181 174
280 297 298 296 301 306 310 308 305 302 296 290 284 279 271 265 258 253 251 246 241 234 231 223 221 218 215 212 226 230 213 223 184 182 180 177 180 170 171 174 178 176 163
287 293 293 302 307 312 311 306 300 296 294 291 289 285 279 271 261 254 251 248 238 238 231 225 221 212 216 213 223 214 215 177 172 177 172 175 175 172 169 171 166 170 161
288 289 297 305 311 308 306 302 302 303 299 294 288 285 280 276 267 258 249 246 247 234 234 225 218 212 212 212 221 212 203 176 173 171 171 171 178 166 176 179 168 162 169
285 289 298 303 304 307 306 307 308 306 303 299 294 288 281 275 269 263 254 244 238 236 230 228 216 211 206 210 217 206 190 179 173 172 170 178 174 172 173 168 157 159 159
274 282 292 300 310 310 310 310 308 308 307 306 301 295 287 282 269 262 255 244 237 235 234 222 218 206 203 197 203 205 187 178 174 172 175 180 189 177 174 168 158 159 162
266 279 291 307 310 313 312 313 313 313 311 307 304 301 297 292 280 265 258 246 235 232 232 218 212 209 207 184 195 196 187 179 176 178 178 183 186 176 179 184 180 174 169
274 286 301 309 314 314 313 315 315 315 311 307 307 301 295 292 287 273 262 244 231 225 222 211 209 194 173 160 188 198 186 181 177 177 178 181 183 182 184 183 179 176 175
280 295 304 311 316 314 314 315 319 319 315 311 312 312 301 299 293 281 257 245 224 214 210 206 195 186 172 179 180 193 188 182 176 173 175 180 183 179 174 170 166 166 166
283 294 305 316 316 316 316 319 318 314 311 308 306 302 299 295 288 285 265 233 217 203 200 203 184 170 166 163 180 185 188 178 173 171 173 171 174 159 163 163 161 164 155
283 295 310 316 318 319 322 323 323 317 309 306 303 291 293 292 294 278 272 222 203 190 197 195 177 165 159 167 178 179 177 173 170 170 167 166 153 141 140 140 144 144 144
285 299 315 319 322 325 333 334 328 320 312 310 318 313 300 288 292 280 259 213 187 196 171 179 174 164 160 172 173 168 168 166 166 160 157 160 145 135 121 135 136 135 129
287 304 315 322 324 331 336 330 332 335 332 332 329 320 313 298 283 283 222 194 187 189 163 163 158 163 163 161 162 158 163 166 169 167 163 153 147 139 132 136 137 126 119
286 307 318 326 323 333 334 337 345 347 348 343 340 326 315 294 251 256 201 193 169 159 184 171 166 159 158 161 159 158 161 164 167 172 167 162 155 148 146 148 154 145 137
286 309 321 326 326 338 341 343 351 2 1 355 330 332 339 293 208 196 191 179 148 152 167 165 173 150 158 165 156 153 151 160 167 166 165 161 158 154 154 165 174 179 189
285 313 325 326 330 344 351 1 1 5 6 3 7 9 7 91 159 172 182 168 146 140 165 161 162 166 166 171 164 156 136 140 145 153 154 158 163 168 168 177 176 189 204
287 314 329 334 337 347 6 9 14 20 19 29 27 25 40 93 125 169 168 154 135 152 168 164 174 171 166 171 162 165 150 146 138 138 155 161 166 168 176 179 180 176 194
280 309 329 339 339 354 25 11 17 35 39 42 49 53 66 94 121 135 150 167 138 152 169 178 182 172 172 170 168 169 174 166 164 140 155 153 156 173 173 169 178 178 187
267 303 323 336 345 8 42 20 36 46 48 37 59 72 68 104 114 130 152 174 162 168 185 183 177 174 177 175 183 176 175 167 168 157 149 149 155 164 168 172 182 181 185
253 304 322 328 327 22 49 36 45 79 77 62 69 100 90 108 129 153 144 147 161 173 183 192 186 183 189 180 190 183 181 171 175 166 155 152 163 162 171 178 184 186 196
Wind_Speed_850mb
16 14 14 18 20 17 16 18 22 23 22 23 27 26 28 29 27 24 23 24 25 25 26 28 36 39 36 39 41 25 23 23 22 18 19 20 17 22 17 19 12 12 11
17 16 17 19 24 24 24 22 24 27 29 27 29 31 32 34 34 32 30 30 28 27 27 27 23 20 31 45 42 22 22 19 20 28 31 21 18 20 25 22 18 14 13
12 11 12 14 19 23 25 29 31 32 33 33 34 32 33 35 37 39 37 36 34 31 29 29 28 26 27 30 40 39 39 30 31 35 32 17 16 17 24 27 21 19 20
11 12 14 17 22 26 30 33 37 39 41 43 43 42 39 38 40 41 41 41 39 37 36 35 34 36 38 40 40 41 40 35 38 39 27 18 13 16 19 25 21 21 23
14 14 19 24 30 36 39 43 45 47 49 49 48 47 46 45 45 44 45 45 43 42 41 39 36 37 36 34 34 35 39 41 40 39 26 22 17 22 27 27 23 19 21
15 19 25 30 34 35 37 40 42 45 49 52 55 53 51 54 56 53 50 49 49 48 48 45 41 40 39 31 29 28 36 36 43 39 29 29 24 27 29 24 21 20 19
19 23 29 31 31 30 30 32 35 37 39 43 50 54 60 59 61 62 58 53 52 52 53 50 43 43 39 36 33 32 37 39 27 30 29 30 29 32 30 29 24 20 18
20 24 25 25 26 31 35 39 42 44 45 47 48 50 56 61 64 63 64 59 57 55 56 54 49 47 41 41 39 28 30 29 35 27 28 29 34 34 28 26 24 21 20
22 22 22 25 30 35 38 42 46 47 49 52 55 55 55 56 61 67 65 68 64 59 59 58 54 51 47 44 39 30 28 38 31 27 35 30 36 32 29 26 22 21 25
21 20 23 29 34 38 42 47 50 52 54 55 56 57 61 61 58 61 68 66 61 64 64 65 59 57 52 47 32 31 32 40 33 34 32 34 30 26 27 24 24 22 24
20 21 26 32 36 41 48 53 56 59 60 57 53 54 58 60 57 55 60 68 67 61 68 62 63 60 56 46 33 34 39 42 39 36 29 41 29 23 25 26 23 22 19
19 24 30 34 39 46 52 56 60 62 60 53 46 42 45 47 53 55 53 60 62 67 60 62 65 65 61 49 34 33 48 44 42 39 32 31 24 22 23 23 19 18 18
22 26 31 36 43 49 57 61 64 64 57 44 37 38 41 41 41 47 51 47 56 58 50 62 64 73 64 51 31 40 50 44 42 36 31 30 24 21 21 22 16 16 14
23 28 32 39 46 53 61 64 65 60 44 35 37 37 39 40 38 40 44 41 45 49 45 65 64 81 61 41 40 43 51 47 42 37 29 29 27 22 23 22 20 17 16
24 28 35 42 49 58 64 67 64 45 33 31 35 31 34 39 38 31 38 38 41 44 38 58 64 57 45 47 48 43 47 49 41 35 32 29 23 19 24 23 22 20 17
25 29 37 44 53 62 67 67 52 38 32 33 35 32 31 35 34 35 29 32 39 32 40 63 64 49 54 44 49 44 49 50 44 39 36 30 19 19 23 24 23 20 26
27 31 38 47 56 64 66 52 36 34 36 39 41 38 36 31 32 31 27 31 37 39 43 70 66 53 52 47 52 52 52 52 45 39 35 29 25 27 27 25 26 31 28
27 32 39 49 58 60 46 37 34 34 37 37 33 35 35 31 26 27 24 27 40 42 63 76 69 66 62 59 52 53 56 49 46 45 38 33 33 29 24 26 32 32 29
26 32 41 49 57 43 37 35 32 32 30 27 32 33 34 31 20 23 22 28 42 40 65 75 70 68 70 67 61 52 54 58 52 43 39 35 33 28 28 23 28 34 27
25 32 41 47 45 35 36 35 31 30 31 30 30 31 31 20 13 12 23 33 36 50 71 80 77 77 78 75 72 67 61 56 52 46 41 38 34 31 29 25 22 31 37
23 29 38 44 34 33 36 41 31 29 31 30 25 24 23 9 9 14 24 40 29 61 70 73 75 89 74 68 76 66 62 57 60 52 48 41 37 32 31 24 20 24 26
20 26 34 34 29 31 38 32 31 32 31 29 25 21 16 1 9 22 23 36 45 68 67 65 76 87 88 87 91 79 55 54 55 49 49 43 35 33 30 24 22 21 18
16 22 28 30 25 28 26 29 31 30 32 28 28 22 10 9 14 21 28 31 59 63 68 77 93 95 98 87 89 65 53 32 61 44 42 40 37 33 27 24 23 24 19
13 17 22 27 22 18 19 24 29 29 34 31 30 26 14 16 20 26 36 30 57 67 74 69 72 92 96 84 58 61 42 81 45 31 39 43 37 28 24 25 26 24 19
11 13 18 22 17 14 14 18 23 20 23 26 24 44 35 33 49 36 31 49 52 48 58 51 74 83 89 87 81 72 49 61 56 66 53 43 38 33 32 30 28 21 16
9 9 14 16 12 9 9 16 18 15 19 20 25 38 36 34 40 34 41 43 53 52 46 46 71 86 71 78 72 68 69 59 56 74 55 46 41 37 34 30 25 18 14
Wind_Direction_850mb
203 214 223 241 267 284 286 270 261 260 266 273 267 259 257 256 255 252 247 242 237 236 229 234 224 241 230 216 240 239 213 205 201 194 183 167 182 195 192 203 198 205 192
201 219 238 251 263 277 278 280 273 272 265 264 269 264 262 258 254 251 249 245 239 233 227 218 222 207 211 220 219 225 218 217 213 188 178 171 203 200 208 205 209 203 194
198 217 242 258 270 275 280 279 280 277 270 267 260 257 255 258 254 250 248 244 241 237 228 219 214 205 198 192 202 222 232 241 216 197 183 175 212 228 211 206 206 193 174
223 241 256 270 279 285 288 284 280 278 275 273 264 260 256 251 251 249 246 243 240 233 225 222 218 221 216 214 217 222 229 228 208 202 193 185 185 193 175 171 175 174 167
237 258 275 286 291 292 290 286 281 277 272 270 272 264 264 256 251 247 246 243 238 233 226 222 219 222 225 215 217 226 226 216 211 209 195 192 178 179 166 162 163 172 170
256 278 288 293 294 293 290 289 287 283 280 277 273 271 263 260 260 256 245 240 238 233 227 221 217 218 225 220 226 220 209 216 218 209 201 201 183 185 171 167 175 187 182
271 286 299 301 301 301 303 305 302 298 293 285 277 270 263 257 252 255 250 244 238 234 229 223 219 220 219 217 217 222 210 216 214 199 194 194 184 181 174 175 180 181 174
280 297 298 296 301 306 310 308 305 302 296 290 284 279 271 265 258 253 251 246 241 234 231 223 221 218 215 212 226 230 213 223 184 182 180 177 180 170 171 174 178 176 163
287 293 293 302 307 312 311 306 300 296 294 291 289 285 279 271 261 254 251 248 238 238 231 225 221 212 216 213 223 214 215 177 172 177 172 175 175 172 169 171 166 170 161
288 289 297 305 311 308 306 302 302 303 299 294 288 285 280 276 267 258 249 246 247 234 234 225 218 212 212 212 221 212 203 176 173 171 171 171 178 166 176 179 168 162 169
285 289 298 303 304 307 306 307 308 306 303 299 294 288 281 275 269 263 254 244 238 236 230 228 216 211 206 210 217 206 190 179 173 172 170 178 174 172 173 168 157 159 159
274 282 292 300 310 310 310 310 308 308 307 306 301 295 287 282 269 262 255 244 237 235 234 222 218 206 203 197 203 205 187 178 174 172 175 180 189 177 174 168 158 159 162
266 279 291 307 310 313 312 313 313 313 311 307 304 301 297 292 280 265 258 246 235 232 232 218 212 209 207 184 195 196 187 179 176 178 178 183 186 176 179 184 180 174 169
274 286 301 309 314 314 313 315 315 315 311 307 307 301 295 292 287 273 262 244 231 225 222 211 209 194 173 160 188 198 186 181 177 177 178 181 183 182 184 183 179 176 175
280 295 304 311 316 314 314 315 319 319 315 311 312 312 301 299 293 281 257 245 224 214 210 206 195 186 172 179 180 193 188 182 176 173 175 180 183 179 174 170 166 166 166
283 294 305 316 316 316 316 319 318 314 311 308 306 302 299 295 288 285 265 233 217 203 200 203 184 170 166 163 180 185 188 178 173 171 173 171 174 159 163 163 161 164 155
283 295 310 316 318 319 322 323 323 317 309 306 303 291 293 292 294 278 272 222 203 190 197 195 177 165 159 167 178 179 177 173 170 170 167 166 153 141 140 140 144 144 144
285 299 315 319 322 325 333 334 328 320 312 310 318 313 300 288 292 280 259 213 187 196 171 179 174 164 160 172 173 168 168 166 166 160 157 160 145 135 121 135 136 135 129
287 304 315 322 324 331 336 330 332 335 332 332 329 320 313 298 283 283 222 194 187 189 163 163 158 163 163 161 162 158 163 166 169 167 163 153 147 139 132 136 137 126 119
286 307 318 326 323 333 334 337 345 347 348 343 340 326 315 294 251 256 201 193 169 159 184 171 166 159 158 161 159 158 161 164 167 172 167 162 155 148 146 148 154 145 137
286 309 321 326 326 338 341 343 351 2 1 355 330 332 339 293 208 196 191 179 148 152 167 165 173 150 158 165 156 153 151 160 167 166 165 161 158 154 154 165 174 179 189
285 313 325 326 330 344 351 1 1 5 6 3 7 9 7 91 159 172 182 168 146 140 165 161 162 166 166 171 164 156 136 140 145 153 154 158 163 168 168 177 176 189 204
287 314 329 334 337 347 6 9 14 20 19 29 27 25 40 93 125 169 168 154 135 152 168 164 174 171 166 171 162 165 150 146 138 138 155 161 166 168 176 179 180 176 194
280 309 329 339 339 354 25 11 17 35 39 42 49 53 66 94 121 135 150 167 138 152 169 178 182 172 172 170 168 169 174 166 164 140 155 153 156 173 173 169 178 178 187
267 303 323 336 345 8 42 20 36 46 48 37 59 72 68 104 114 130 152 174 162 168 185 183 177 174 177 175 183 176 175 167 168 157 149 149 155 164 168 172 182 181 185
253 304 322 328 327 22 49 36 45 79 77 62 69 100 90 108 129 153 144 147 161 173 183 192 186 183 189 180 190 183 181 171 175 166 155 152 163 162 171 178 184 186 196